| Date | Time | Temp. (oF) | Dew Point (oF) | Rel. Hum. (%) | Press. (in.) | Wind Dir. | Wind Speed (mph) | Hourly Rainfall (in.) |
|
|---|---|---|---|---|---|---|---|---|---|
| 1 | 01/05 | 00:00 | 31 | 26 | 83 | 30.08 | SW | 3 | 0.00 |
| 2 | 01/04 | 23:00 | 31 | 26 | 83 | 30.06 | WNW | 3 | 0.00 |
| 3 | 01/04 | 22:00 | 31 | 26 | 82 | 30.05 | WSW | 6 | 0.00 |
| 4 | 01/04 | 21:00 | 31 | 26 | 83 | 30.05 | W | 13 | 0.00 |
| 5 | 01/04 | 20:00 | 32 | 27 | 82 | 30.03 | W | 6 | 0.00 |
| 6 | 01/04 | 19:00 | 32 | 27 | 84 | 30.03 | W | 3 | 0.00 |
| 7 | 01/04 | 18:00 | 33 | 28 | 84 | 30.01 | WNW | 12 | 0.00 |
| 8 | 01/04 | 17:00 | 33 | 28 | 83 | 29.98 | W | 7 | 0.00 |
| 9 | 01/04 | 16:00 | 33 | 27 | 81 | 29.96 | W | 10 | 0.00 |
| 10 | 01/04 | 15:00 | 34 | 28 | 81 | 29.93 | WNW | 9 | 0.00 |
| 11 | 01/04 | 14:00 | 34 | 29 | 82 | 29.91 | SW | 7 | 0.00 |
| 12 | 01/04 | 13:00 | 33 | 28 | 83 | 29.89 | W | 14 | 0.00 |
| 13 | 01/04 | 12:00 | 34 | 29 | 84 | 29.90 | WNW | 8 | 0.00 |
| 14 | 01/04 | 11:00 | 32 | 28 | 87 | 29.92 | WNW | 12 | 0.00 |
| 15 | 01/04 | 10:00 | 31 | 28 | 90 | 29.91 | WNW | 13 | 0.00 |
| 16 | 01/04 | 09:00 | 31 | 28 | 91 | 29.89 | NW | 5 | 0.00 |
| 17 | 01/04 | 08:00 | 31 | 29 | 94 | 29.85 | NW | 9 | 0.00 |
| 18 | 01/04 | 07:00 | 32 | 30 | 95 | 29.83 | WNW | 13 | 0.00 |
| 19 | 01/04 | 06:00 | 32 | 31 | 98 | 29.80 | WNW | 7 | 0.00 |
| 20 | 01/04 | 05:00 | 32 | 31 | 99 | 29.79 | WNW | 7 | 0.00 |
| 21 | 01/04 | 04:00 | 31 | 31 | 100 | 29.77 | NW | 7 | 0.00 |
| 22 | 01/04 | 03:00 | 31 | 31 | 100 | 29.78 | WNW | 11 | 0.00 |
| 23 | 01/04 | 02:00 | 31 | 31 | 100 | 29.76 | WNW | 7 | 0.00 |
| 24 | 01/04 | 01:00 | 31 | 31 | 100 | 29.76 | W | 10 | 0.00 |